星链-1287 (STARLINK-1287 )

导读 | 豆包AI

STARLINK-1287是美国太空探索技术公司星链卫星互联网项目的组网卫星,于2020年3月18日发射升空,属于星链早期部署批次卫星。星链计划旨在构建全球覆盖的低轨卫星互联网星座,该卫星承担为全球偏远地区等提供宽带网络接入服务的组网任务,运行在近地轨道,助力星链星座服务能力的逐步搭建。

基本信息
目录编号:
45371
目录名称:
STARLINK-1287
国际标识:
2020-019M
轨道中心:
EARTH
卫星名称:
星链-1287
卫星全名:
星链-1287 (STARLINK-1287 )
卫星状态:
已陨落 最后检测时间 2024-08-17
发射日期:
2020-03-18 UTC
国别 :
美国 (US)
星等 :
--
轨道信息
数据来源 国际轨道数据
星历时间: 2024-08-17T16:14:28+0800
轨道信息已过期620天
半长轴: 6571.93km
偏心率: 0.0007924
轨道倾角: 53.035°
近地点辐角 259.791°
升交点赤经 132.495°
平近点角 201.827°
近地点: 188.587km
远地点: 199.003km
周期: 88.369分钟
每日圈数: 16.295338
详细信息
固有亮度:
5
最大亮度:
2.5
卫星平台:
Starlink V1.0
覆盖范围:
全球
运营商:
太空探索技术公司
运营商所在国:
美国
制造商(研发单位):
太空探索技术公司
制造商所在国:
美国
使用方式:
暂无
卫星简介
星链(Starlink)计划是由太空探索技术公司(SpaceX)提出的一个巨型低轨卫星互联网星座项目,计划在2019年至2024年间在太空搭建由约1.2万颗卫星组成的“星链”网络,其中1584颗将部署在地球上空550千米处的近地轨道,并从2020年开始工作。该卫星仍在工作。